Weather History for KINL - December, 2012

Change the Weather History Date:

Tuesday, December 18, 2012

  Actual Average Record
Temperature  
Mean Temperature 18 °F 8 °F  
Max Temperature 21 °F 18 °F 42 °F (1923)
Min Temperature 14 °F -1 °F -36 °F (1983)
Degree Days  
Heating Degree Days 47 57  
Month to date heating degree days 844 952  
Since 1 July heating degree days 3324 3413  
Cooling Degree Days 0 0  
Month to date cooling degree days 0 0  
Year to date cooling degree days 222 192  
Moisture  
Dew Point 16 °F    
Average Humidity 90    
Maximum Humidity 96    
Minimum Humidity 84    
Precipitation  
Precipitation 0.02 in 0.02 in 0.20 in (2002)
Month to date precipitation 0.97 0.48  
Year to date precipitation 24.98 23.89  
Snow  
Snow 0.30 in 0.50 in 3.00 in (1992)
Month to date snowfall 10.0 8.6  
Since 1 July snowfall 20.9 24.6  
Snow Depth 6.00 in    
Sea Level Pressure  
Sea Level Pressure 29.73 in    
Wind  
Wind Speed 2 mph (ESE)    
Max Wind Speed 6 mph    
Max Gust Speed 8 mph    
Visibility 9 miles    
Events Snow    
T = Trace of Precipitation, MM = Missing Value Source: NWS Daily Summary

Daily Weather History Graph

Daily Weather History Graph

Search for Another Location

Airport or City:

Trip Planner

Search our weather history database for the weather conditions in past years. The results will help you decide how hot, cold, wet, or windy it might be!

Date:

Astronomy

Dec. 18, 2012 Rise Set
Actual Time 8:01 AM CST 4:19 PM CST
Civil Twilight 7:24 AM CST 4:56 PM CST
Nautical Twilight 6:44 AM CST 5:36 PM CST
Astronomical Twilight 6:06 AM CST 6:14 PM CST
Moon 11:15 AM CST (12/18) 11:15 PM CST (12/18)
Length of Visible Light 9h 31m
Length of Day
8h 17m
Waxing Crescent, 35% of the Moon is Illuminated
Dec 18
Waxing Crescent
Dec 19
First Quarter
Dec 28
Full
Jan 4
Last Quarter
Jan 11
New

Hourly Weather History & Observations

Time (CST) Temp. Windchill Dew Point Humidity Pressure Visibility Wind Dir Wind Speed Gust Speed Precip Events Conditions
12:55 AM 14.0 °F 6.5 °F 12.0 °F 92% 29.75 in 10.0 mi South 4.6 mph - N/A   Overcast
1:55 AM 14.0 °F 8.2 °F 12.0 °F 92% 29.75 in 10.0 mi SE 3.5 mph - N/A   Overcast
2:55 AM 14.0 °F 6.5 °F 12.0 °F 92% 29.75 in 10.0 mi WSW 4.6 mph - N/A   Overcast
3:55 AM 15.1 °F - 12.9 °F 91% 29.75 in 10.0 mi Calm Calm - N/A   Overcast
4:55 AM 14.0 °F - 12.0 °F 92% 29.74 in 10.0 mi Calm Calm - N/A   Overcast
5:55 AM 14.0 °F 8.2 °F 12.0 °F 92% 29.74 in 10.0 mi SE 3.5 mph - N/A   Overcast
6:55 AM 15.1 °F 9.4 °F 12.9 °F 91% 29.74 in 10.0 mi East 3.5 mph - N/A   Overcast
7:55 AM 15.1 °F 7.7 °F 12.0 °F 88% 29.74 in 10.0 mi East 4.6 mph - N/A   Overcast
8:55 AM 15.1 °F 9.4 °F 12.9 °F 91% 29.75 in 10.0 mi ESE 3.5 mph - N/A   Overcast
9:50 AM 15.8 °F 8.6 °F 12.2 °F 86% 29.68 in 10.0 mi ESE 4.6 mph - N/A   Overcast
9:55 AM 16.0 °F 8.8 °F 12.9 °F 88% 29.75 in 10.0 mi SE 4.6 mph - N/A   Overcast
10:21 AM 15.8 °F 8.6 °F 14.0 °F 93% 29.68 in 10.0 mi ESE 4.6 mph - N/A   Overcast
10:55 AM 17.1 °F 11.7 °F 14.0 °F 88% 29.75 in 6.0 mi ESE 3.5 mph - N/A   Mist
11:20 AM 17.6 °F 10.7 °F 15.8 °F 93% 29.67 in 5.0 mi ESE 4.6 mph - 0.00 in Snow Light Snow
11:55 AM 18.0 °F - 15.1 °F 88% 29.75 in 8.0 mi Calm Calm - 0.00 in   Overcast
12:13 PM 17.6 °F 12.3 °F 15.8 °F 93% 29.67 in 1.8 mi SSE 3.5 mph - 0.00 in Snow Light Snow
12:36 PM 19.4 °F - 15.8 °F 86% 29.67 in 3.0 mi Calm Calm - 0.01 in Snow Light Snow
12:55 PM 19.0 °F - 16.0 °F 88% 29.74 in 4.0 mi Calm Calm - 0.01 in Snow Light Snow
1:30 PM 19.4 °F - 17.6 °F 93% 29.66 in 2.0 mi Calm Calm - 0.00 in Snow Light Snow
1:41 PM 19.4 °F 14.3 °F 17.6 °F 93% 29.66 in 8.0 mi SE 3.5 mph - 0.00 in   Overcast
1:55 PM 19.9 °F - 17.1 °F 89% 29.74 in 10.0 mi Calm Calm - 0.00 in   Overcast
2:13 PM 19.4 °F - 17.6 °F 93% 29.67 in 10.0 mi Calm Calm - N/A   Overcast
2:38 PM 19.4 °F - 17.6 °F 93% 29.67 in 7.0 mi Calm Calm - N/A   Overcast
2:55 PM 19.9 °F - 17.1 °F 89% 29.75 in 10.0 mi Calm Calm - N/A   Overcast
3:08 PM 21.2 °F - 17.6 °F 86% 29.68 in 10.0 mi Calm Calm - N/A   Overcast
3:18 PM 21.2 °F 16.4 °F 17.6 °F 86% 29.68 in 9.0 mi SE 3.5 mph - N/A   Overcast
3:27 PM 21.2 °F 16.4 °F 17.6 °F 86% 29.68 in 8.0 mi ESE 3.5 mph - N/A   Overcast
3:38 PM 21.2 °F 14.9 °F 17.6 °F 86% 29.68 in 6.0 mi ESE 4.6 mph - 0.00 in Snow Light Snow
3:55 PM 21.0 °F 14.6 °F 18.0 °F 88% 29.75 in 8.0 mi ESE 4.6 mph - 0.00 in   Overcast
4:02 PM 21.2 °F 14.9 °F 17.6 °F 86% 29.67 in 8.0 mi ESE 4.6 mph - N/A   Overcast
4:18 PM 19.4 °F 12.8 °F 17.6 °F 93% 29.68 in 9.0 mi East 4.6 mph - N/A   Overcast
4:55 PM 19.9 °F 14.9 °F 18.0 °F 92% 29.75 in 7.0 mi ESE 3.5 mph - N/A   Overcast
5:34 PM 19.4 °F 14.3 °F 17.6 °F 93% 29.70 in 10.0 mi ESE 3.5 mph - N/A   Overcast
5:55 PM 19.9 °F 14.9 °F 17.1 °F 89% 29.77 in 9.0 mi ESE 3.5 mph - N/A   Overcast
6:53 PM 19.4 °F - 17.6 °F 93% 29.71 in 10.0 mi Calm Calm - 0.00 in   Overcast
6:55 PM 19.9 °F - 18.0 °F 92% 29.78 in 10.0 mi Calm Calm - 0.00 in   Overcast
7:55 PM 21.0 °F - 18.0 °F 88% 29.80 in 5.0 mi Calm Calm - 0.01 in Snow Light Snow
8:55 PM 21.0 °F 16.2 °F 18.0 °F 88% 29.80 in 10.0 mi East 3.5 mph - 0.00 in   Overcast
9:55 PM 21.0 °F - 18.0 °F 88% 29.78 in 10.0 mi Calm Calm - N/A   Overcast
10:41 PM 21.2 °F 14.9 °F 17.6 °F 86% 29.73 in 10.0 mi SE 4.6 mph - N/A   Overcast
10:55 PM 21.0 °F 16.2 °F 19.0 °F 92% 29.80 in 10.0 mi SE 3.5 mph - N/A   Overcast
11:55 PM 21.0 °F 14.6 °F 19.0 °F 92% 29.80 in 9.0 mi ESE 4.6 mph - N/A   Overcast